TimeAKDT,TemperatureF,Dew PointF,Humidity,Sea Level PressureIn,VisibilityMPH,Wind Direction,Wind SpeedMPH,Gust SpeedMPH,PrecipitationIn,Events,Conditions,WindDirDegrees,DateUTC
12:53 AM,55.9,55.0,97,29.91,5.0,East,10.4,-,0.21,Rain,Rain,90,2013-09-01 08:53:00
1:53 AM,55.9,55.0,97,29.90,6.0,ESE,10.4,-,0.11,Rain,Light Rain,110,2013-09-01 09:53:00
2:53 AM,55.9,55.0,97,29.88,8.0,East,9.2,-,0.09,Rain,Light Rain,80,2013-09-01 10:53:00
3:53 AM,55.9,55.0,97,29.87,8.0,East,8.1,-,0.05,Rain,Light Rain,90,2013-09-01 11:53:00
4:53 AM,55.9,55.0,97,29.86,6.0,East,8.1,-,0.11,Rain,Light Rain,80,2013-09-01 12:53:00
5:53 AM,55.9,55.0,97,29.85,10.0,East,9.2,-,0.02,Rain,Light Rain,80,2013-09-01 13:53:00
6:53 AM,55.0,54.0,96,29.84,3.0,East,10.4,-,0.07,Rain,Light Rain,90,2013-09-01 14:53:00
7:53 AM,55.9,54.0,93,29.84,6.0,East,13.8,-,0.03,Rain,Light Rain,90,2013-09-01 15:53:00
8:53 AM,55.9,55.0,97,29.83,9.0,East,12.7,-,0.01,Rain,Light Rain,80,2013-09-01 16:53:00
9:53 AM,55.9,55.0,97,29.83,8.0,East,11.5,-,0.00,Rain,Light Rain,80,2013-09-01 17:53:00
10:53 AM,55.9,55.0,97,29.83,8.0,East,11.5,-,0.00,Rain,Light Rain,80,2013-09-01 18:53:00
11:53 AM,55.9,55.0,97,29.83,8.0,East,12.7,-,0.00,,Overcast,80,2013-09-01 19:53:00
12:53 PM,55.9,55.0,97,29.84,10.0,ENE,9.2,-,0.00,,Overcast,70,2013-09-01 20:53:00
1:53 PM,57.0,55.0,93,29.84,9.0,ENE,11.5,-,0.00,,Overcast,70,2013-09-01 21:53:00
2:53 PM,57.0,55.0,93,29.84,10.0,ENE,11.5,-,0.00,,Overcast,70,2013-09-01 22:53:00
3:53 PM,57.0,55.0,93,29.84,10.0,East,12.7,-,0.03,Rain,Light Rain,80,2013-09-01 23:53:00
4:53 PM,57.0,55.0,93,29.84,9.0,East,12.7,-,0.01,Rain,Light Rain,80,2013-09-02 00:53:00
5:53 PM,57.0,55.0,93,29.84,6.0,ENE,8.1,-,0.06,Rain,Light Rain,70,2013-09-02 01:53:00
6:12 PM,57.0,55.0,93,29.84,2.5,ENE,8.1,-,0.02,Rain,Rain,70,2013-09-02 02:12:00
6:31 PM,55.9,55.0,97,29.85,1.8,ENE,6.9,-,0.13,Rain,Heavy Rain,60,2013-09-02 02:31:00
6:53 PM,57.0,55.0,93,29.86,1.2,NNE,3.5,-,0.21,Rain,Heavy Rain,30,2013-09-02 02:53:00
7:07 PM,55.9,55.0,97,29.85,2.0,NE,5.8,-,0.13,Rain,Heavy Rain,50,2013-09-02 03:07:00
7:31 PM,55.9,55.9,100,29.85,2.0,East,5.8,-,0.36,Rain,Heavy Rain,80,2013-09-02 03:31:00
7:44 PM,57.0,55.0,93,29.86,1.5,ENE,6.9,-,0.44,Rain,Light Rain,60,2013-09-02 03:44:00
7:53 PM,55.9,55.9,100,29.86,1.8,East,5.8,-,0.46,Rain,Rain,90,2013-09-02 03:53:00
8:15 PM,55.9,55.0,97,29.86,4.0,East,6.9,-,0.03,Rain,Light Rain,100,2013-09-02 04:15:00
8:53 PM,55.0,54.0,96,29.86,10.0,Calm,Calm,-,0.04,,Overcast,0,2013-09-02 04:53:00
9:41 PM,55.0,55.0,100,29.87,10.0,East,4.6,-,N/A,,Overcast,80,2013-09-02 05:41:00
9:53 PM,55.0,54.0,96,29.87,10.0,East,5.8,-,N/A,Fog,Patches of Fog,100,2013-09-02 05:53:00
10:08 PM,55.0,54.0,96,29.87,9.0,ENE,5.8,-,N/A,Fog,Patches of Fog,70,2013-09-02 06:08:00
10:23 PM,55.0,55.0,100,29.87,10.0,East,4.6,-,N/A,Fog,Patches of Fog,80,2013-09-02 06:23:00
10:53 PM,55.0,55.0,100,29.88,10.0,East,4.6,-,N/A,Fog,Patches of Fog,90,2013-09-02 06:53:00
11:33 PM,54.0,54.0,100,29.89,2.0,East,6.9,-,N/A,,Overcast,90,2013-09-02 07:33:00
11:35 PM,54.0,54.0,100,29.89,7.0,East,8.1,-,N/A,Fog,Patches of Fog,90,2013-09-02 07:35:00
11:43 PM,54.0,54.0,100,29.89,3.0,ESE,11.5,-,N/A,,Overcast,110,2013-09-02 07:43:00
11:53 PM,54.0,53.1,97,29.90,4.0,East,10.4,-,N/A,,Overcast,100,2013-09-02 07:53:00